Location: *
(34.8620°S, 39.3380°E)
Time: 22:43:39
(UTC+00:00)

Lacrosse 4 Rocket - Pass Details

Date: 02 December 2021
Orbit: 535 x 620 km, 68.0° (Epoch: 24 January)

Event Time Altitude Azimuth Distance (km) Brightness Sun altitude
Rises 17:38:00 0° 190° (S) 2,742 5.7 -13.7°
Reaches altitude 10° 17:40:40 10° 173° (S) 1,831 4.4 -14.1°
Maximum altitude 17:43:47 21° 124° (ESE) 1,269 3.0 -14.6°
Enters shadow 17:45:19 17° 93° (E) 1,417 3.0 -14.8°
